Temp
-6 -6 -6 -6 -6 -6 -6 -6 -6 -6 -6 -6 -6 -6 -6 -6 -6 -6 -6 -6 -7 -7 -7 -7 -7 -8 -8 -8 -8 -8 -8 -8 -8
-6 -6 -6 -6 -6 -6 -6 -6 -6 -6 -6 -6 -6 -6 -6 -6 -6 -6 -7 -7 -7 -7 -7 -7 -8 -8 -8 -8 -8 -9 -9 -9 -9
-7 -7 -7 -6 -6 -6 -6 -6 -6 -6 -6 -6 -6 -6 -6 -6 -6 -7 -7 -7 -7 -7 -8 -8 -8 -8 -8 -8 -9 -9 -9 -9 -9
-7 -7 -7 -6 -6 -6 -6 -6 -6 -6 -6 -6 -6 -6 -6 -7 -7 -7 -7 -7 -8 -8 -8 -8 -8 -8 -9 -9 -9 -9 -9 -10 -10
-7 -7 -7 -7 -6 -6 -7 -7 -7 -6 -6 -6 -6 -7 -7 -7 -8 -8 -8 -8 -8 -8 -8 -8 -9 -9 -9 -9 -9 -10 -10 -10 -10
-7 -7 -7 -7 -7 -7 -7 -7 -7 -7 -6 -7 -7 -7 -7 -8 -8 -8 -8 -8 -8 -8 -9 -9 -9 -9 -9 -10 -10 -10 -10 -10 -11
-7 -7 -7 -7 -7 -7 -7 -7 -7 -7 -7 -7 -7 -8 -8 -8 -8 -8 -8 -8 -9 -9 -9 -9 -9 -10 -10 -10 -10 -10 -11 -11 -11
-8 -8 -7 -7 -7 -7 -7 -7 -7 -7 -7 -8 -8 -8 -8 -8 -8 -8 -9 -9 -9 -9 -9 -9 -10 -10 -10 -10 -11 -11 -11 -12 -12
-8 -8 -8 -8 -8 -8 -8 -8 -7 -8 -8 -8 -8 -8 -8 -8 -8 -9 -9 -9 -9 -10 -10 -10 -10 -10 -10 -11 -11 -11 -11 -12 -12
-8 -8 -8 -8 -8 -8 -8 -8 -8 -8 -8 -8 -8 -8 -8 -9 -9 -9 -9 -9 -9 -10 -10 -10 -11 -11 -11 -11 -11 -11 -12 -12 -12
-9 -9 -9 -9 -9 -9 -8 -8 -9 -9 -9 -9 -9 -9 -9 -9 -9 -9 -9 -10 -10 -10 -10 -11 -11 -11 -11 -11 -12 -12 -12 -12 -12
-9 -9 -9 -9 -9 -9 -9 -9 -9 -9 -9 -9 -9 -9 -9 -9 -9 -10 -10 -10 -10 -10 -11 -11 -11 -11 -11 -12 -12 -12 -12 -12 -13
-9 -9 -9 -9 -9 -9 -9 -9 -9 -9 -9 -10 -10 -10 -10 -10 -10 -10 -10 -11 -11 -11 -11 -11 -11 -11 -11 -12 -12 -12 -13 -13 -13
-10 -9 -9 -9 -9 -9 -9 -9 -9 -9 -10 -10 -10 -10 -11 -10 -10 -11 -11 -11 -11 -11 -11 -11 -11 -11 -12 -12 -12 -13 -13 -13 -13
-10 -10 -10 -10 -10 -10 -10 -10 -10 -10 -10 -10 -11 -11 -11 -11 -11 -11 -11 -11 -11 -11 -11 -11 -11 -12 -12 -12 -12 -12 -13 -13 -14
-11 -10 -10 -10 -10 -10 -10 -10 -10 -10 -10 -11 -11 -11 -11 -12 -12 -12 -12 -12 -12 -11 -12 -11 -12 -12 -12 -12 -12 -13 -13 -13 -13
-11 -11 -11 -11 -10 -11 -11 -11 -11 -11 -11 -11 -11 -12 -12 -12 -12 -12 -12 -12 -12 -12 -12 -12 -12 -12 -12 -13 -13 -13 -13 -13 -13
-12 -11 -11 -11 -11 -11 -11 -11 -11 -11 -11 -11 -12 -12 -12 -13 -13 -13 -13 -12 -12 -12 -12 -12 -12 -12 -13 -13 -13 -13 -13 -13 -13
-11 -11 -12 -11 -11 -11 -11 -11 -11 -12 -12 -12 -12 -12 -12 -12 -13 -13 -13 -13 -13 -13 -12 -12 -13 -13 -13 -13 -13 -13 -13 -14 -14
-11 -11 -11 -11 -12 -12 -12 -12 -12 -12 -12 -12 -12 -12 -12 -13 -13 -13 -13 -13 -13 -12 -13 -13 -13 -14 -13 -14 -13 -14 -14 -14 -14
Height
5899 5899 5899 5899 5898 5897 5897 5896 5896 5894 5893 5892 5892 5890 5888 5888 5888 5887 5885 5884 5883 5881 5880 5878 5877 5876 5874 5873 5870 5869 5867 5864 5862
5897 5897 5896 5896 5896 5895 5894 5894 5893 5893 5892 5891 5891 5889 5888 5887 5886 5886 5885 5883 5882 5880 5879 5877 5876 5874 5873 5872 5870 5868 5866 5864 5861
5894 5895 5894 5894 5894 5893 5893 5892 5892 5891 5890 5889 5889 5888 5886 5886 5885 5884 5883 5882 5880 5879 5877 5876 5874 5873 5871 5870 5868 5867 5865 5862 5860
5893 5893 5892 5892 5892 5892 5891 5890 5890 5890 5889 5888 5888 5886 5885 5884 5883 5882 5881 5880 5879 5877 5876 5874 5872 5871 5869 5868 5866 5865 5863 5860 5858
5891 5891 5890 5890 5890 5890 5889 5888 5888 5888 5887 5886 5886 5884 5883 5882 5881 5880 5879 5877 5876 5875 5874 5872 5870 5868 5867 5866 5864 5862 5860 5858 5856
5889 5889 5888 5888 5888 5888 5886 5886 5886 5886 5885 5884 5884 5882 5881 5880 5879 5878 5876 5875 5874 5873 5871 5869 5867 5866 5864 5863 5860 5859 5857 5855 5852
5886 5886 5886 5886 5886 5885 5884 5884 5884 5883 5882 5882 5881 5880 5878 5877 5876 5874 5873 5872 5871 5870 5868 5866 5864 5862 5861 5859 5856 5855 5853 5850 5848
5882 5883 5883 5883 5883 5882 5882 5882 5882 5881 5881 5880 5879 5877 5875 5874 5872 5871 5869 5869 5868 5866 5864 5862 5861 5859 5857 5855 5853 5851 5848 5846 5843
5879 5880 5880 5880 5880 5880 5879 5878 5878 5878 5878 5878 5877 5875 5873 5871 5869 5868 5866 5865 5864 5862 5860 5859 5856 5854 5852 5850 5848 5845 5843 5840 5838
5875 5876 5877 5877 5877 5877 5876 5876 5875 5875 5875 5874 5874 5872 5870 5868 5866 5865 5864 5862 5860 5858 5857 5855 5852 5849 5847 5845 5843 5840 5837 5834 5832
5871 5872 5873 5874 5874 5874 5873 5873 5873 5872 5871 5870 5869 5868 5866 5864 5862 5861 5860 5858 5857 5855 5852 5850 5848 5845 5843 5840 5838 5834 5831 5828 5826
5867 5868 5869 5870 5870 5870 5870 5870 5869 5868 5868 5867 5865 5863 5861 5860 5858 5857 5856 5854 5852 5850 5848 5845 5843 5841 5838 5835 5832 5829 5825 5822 5819
5862 5863 5865 5865 5865 5865 5865 5865 5865 5864 5864 5863 5861 5859 5857 5855 5854 5852 5851 5848 5847 5844 5842 5840 5837 5835 5832 5829 5825 5822 5819 5816 5813
5858 5858 5859 5859 5860 5859 5859 5860 5859 5859 5858 5858 5856 5855 5853 5851 5849 5847 5845 5843 5841 5839 5836 5834 5831 5828 5825 5822 5819 5816 5813 5809 5807
5850 5852 5853 5854 5854 5854 5855 5855 5853 5853 5853 5852 5851 5849 5847 5845 5844 5842 5839 5837 5835 5832 5829 5827 5824 5821 5818 5815 5812 5810 5808 5804 5800
5843 5845 5846 5847 5847 5849 5849 5848 5847 5847 5846 5846 5844 5844 5841 5840 5838 5836 5833 5831 5829 5826 5823 5820 5817 5813 5811 5808 5806 5803 5801 5799 5795
5835 5836 5838 5839 5840 5841 5841 5841 5840 5840 5840 5840 5838 5837 5836 5834 5832 5830 5827 5825 5822 5819 5816 5812 5809 5806 5803 5801 5798 5795 5793 5790 5788
5826 5827 5830 5831 5832 5833 5834 5834 5834 5833 5833 5832 5833 5831 5830 5827 5826 5823 5821 5818 5815 5812 5809 5805 5802 5799 5796 5793 5790 5788 5786 5782 5779
5817 5819 5821 5823 5824 5825 5825 5825 5826 5826 5825 5825 5824 5823 5823 5821 5821 5819 5815 5812 5808 5805 5801 5798 5794 5791 5788 5785 5783 5780 5778 5774 5770
5810 5810 5812 5814 5815 5817 5818 5818 5818 5819 5818 5818 5817 5815 5813 5812 5811 5810 5808 5804 5800 5796 5793 5789 5786 5783 5780 5777 5775 5772 5769 5767 5761
Wind_Speed
5 5 5 5 6 7 8 8 8 8 8 10 11 11 11 10 9 12 14 15 15 14 14 13 14 15 17 17 16 16 16 16 17
6 6 6 6 7 8 8 8 8 9 9 10 10 10 9 9 10 13 14 15 16 15 13 14 15 17 17 18 18 18 18 18 18
8 7 6 7 8 8 8 8 8 9 10 10 10 10 10 10 11 14 15 16 16 16 15 16 18 19 19 20 20 19 19 19 19
8 7 7 7 8 8 7 7 8 8 9 10 11 11 11 12 13 15 16 17 18 17 17 19 20 20 21 21 21 21 21 21 22
9 8 8 8 8 8 8 7 7 8 9 10 11 11 11 12 14 16 17 18 19 18 19 20 21 22 22 23 23 24 24 23 24
10 10 9 10 9 9 8 8 8 9 10 10 10 11 12 13 15 16 17 18 20 20 20 21 22 23 24 25 25 26 27 27 26
12 11 11 10 11 10 9 9 9 10 10 11 11 11 12 14 16 18 19 20 22 23 23 23 24 25 26 26 27 29 29 29 29
14 13 12 11 12 12 11 11 11 11 11 12 13 13 15 17 18 19 21 23 25 26 26 26 27 28 28 29 29 30 30 30 31
16 15 14 13 14 13 13 13 14 13 13 13 14 15 16 18 19 20 22 24 25 26 27 28 28 29 30 30 31 31 31 31 32
18 17 17 15 16 15 15 15 15 15 15 15 17 17 18 19 21 22 24 25 26 27 28 29 30 30 32 32 31 31 31 30 31
20 20 19 18 18 18 17 16 16 16 17 18 19 20 20 21 22 24 25 26 26 28 29 30 31 32 32 33 32 32 32 32 32
23 23 22 21 20 19 19 18 17 18 19 20 21 22 22 24 26 26 27 27 28 29 30 31 32 32 32 33 33 33 32 33 32
26 26 25 24 23 22 21 20 20 21 21 21 23 24 24 25 27 27 28 29 30 31 32 33 33 34 35 34 34 35 33 32 32
28 29 28 27 26 25 25 23 23 24 23 24 25 25 26 27 28 29 30 31 32 33 35 36 35 36 37 36 34 32 32 33 32
31 31 30 29 29 29 26 25 26 26 26 26 26 27 28 28 28 29 31 33 34 36 37 38 38 38 38 36 34 32 30 31 34
35 34 33 32 33 31 28 27 28 28 28 27 29 29 29 29 30 31 32 35 37 39 40 41 39 39 37 35 34 33 29 31 36
38 38 37 36 35 33 31 30 30 31 30 30 31 30 30 31 31 32 34 37 39 41 42 42 41 39 37 35 34 31 33 35 37
45 43 41 39 36 35 34 35 33 33 32 33 33 31 31 34 31 33 37 40 42 42 44 42 40 38 36 35 33 32 36 37 39
52 49 44 40 40 39 37 37 35 33 34 31 31 32 34 31 29 34 37 40 42 44 45 42 39 37 36 35 32 34 37 38 38
46 41 41 37 38 35 34 35 36 35 34 35 34 35 36 33 35 36 41 40 43 45 44 40 38 36 36 31 33 35 37 38 38
Wind_Direction
263 275 285 302 312 309 315 317 315 321 330 335 332 334 342 338 334 335 337 336 333 335 335 336 336 336 337 335 338 335 332 331 329
256 263 281 298 298 305 308 303 315 326 330 331 328 335 331 328 327 332 332 333 332 330 329 329 331 334 332 332 333 330 328 328 328
256 265 283 294 302 306 303 310 321 327 330 328 328 331 331 323 326 330 331 333 329 327 322 324 330 332 331 329 327 324 322 322 322
255 265 278 291 303 304 304 312 323 325 328 329 330 334 332 323 326 330 333 333 329 326 321 322 326 328 326 326 323 321 320 319 319
251 264 278 286 291 297 303 312 313 319 323 327 328 329 326 324 323 327 331 332 329 325 320 320 322 322 321 321 321 321 320 317 315
251 262 274 280 286 291 298 306 310 315 318 321 322 323 320 318 318 323 326 326 324 321 319 317 316 317 317 317 318 317 316 315 314
247 256 265 275 285 291 298 301 303 307 312 316 317 318 317 314 317 319 320 320 316 315 314 314 315 315 316 316 317 315 313 312 313
250 258 265 275 282 289 293 295 297 302 305 308 311 316 318 317 317 317 316 314 312 311 311 311 312 314 315 314 314 312 312 311 312
248 253 263 271 280 285 290 292 294 295 297 304 309 312 313 312 312 313 312 310 309 309 310 310 312 313 312 312 311 312 311 311 310
253 258 264 270 277 282 287 287 290 291 296 302 304 304 306 308 310 310 308 308 310 311 311 311 311 312 312 312 313 313 313 312 310
256 261 265 270 276 280 283 284 284 286 292 296 300 302 303 305 306 305 306 308 309 310 309 311 311 311 312 313 313 313 313 312 311
252 257 262 267 271 275 278 280 280 280 285 290 293 296 299 302 304 306 306 307 308 309 309 311 311 311 312 312 312 312 311 311 310
253 257 261 264 268 271 274 275 276 276 279 282 286 290 294 297 301 304 305 308 309 310 309 310 310 311 311 311 312 311 310 309 307
253 256 260 262 265 267 269 272 272 273 275 277 281 287 291 295 298 302 303 306 306 307 308 309 309 310 310 310 309 309 308 306 308
252 255 258 262 263 263 267 268 269 272 274 278 283 287 290 293 298 300 302 304 305 306 307 307 310 310 310 309 307 305 303 305 310
250 254 257 259 261 265 267 267 270 273 275 279 282 285 287 290 296 298 300 302 304 307 307 308 308 307 307 305 303 303 300 304 308
248 253 255 256 260 262 264 266 269 273 276 278 281 282 283 287 291 294 298 301 303 305 306 305 306 305 304 301 301 298 301 306 307
244 252 256 258 259 261 266 269 271 273 275 277 281 280 281 284 288 293 298 300 300 304 302 302 302 303 299 297 297 298 303 305 307
246 252 255 257 260 263 265 267 270 273 273 277 278 281 282 281 288 290 293 294 297 302 301 300 298 296 295 297 296 301 304 306 306
250 253 253 253 263 263 264 267 270 272 272 276 276 275 278 295 302 296 291 296 298 298 297 297 295 293 295 291 296 300 303 304 304